Regional Weather Roundup
Issued by NWS

Home | Current Version | Previous Version | Graphics & Text | Print | Product List | Glossary On
Versions: 1 2 3 4 5 6 7 8 9 10 11 12 13 14 15 16 17 18 19 20 21 22 23 24 25 26 27 28 29 30 31 32 33 34 35 36 37 38 39 40 41 42 43 44 45 46 47 48 49 50
870
ASUS44 KLIX 190810
RWRLA
LOUISIANA WEATHER ROUNDUP
NATIONAL WEATHER SERVICE NEW ORLEANS LA
200 AM CST FRI DEC 19 2014

NOTE: "FAIR" INDICATES FEW OR NO CLOUDS BELOW 12,000 FEET WITH NO
      SIGNIFICANT WEATHER AND/OR OBSTRUCTIONS TO VISIBILITY.
      SKY/WX - SKY CONDITION AND SIGNIFICANT WEATHER.
      TMP - AIR TEMPERATURE.    DP   - DEWPOINT TEMPERATURE.
      RH  - RELATIVE HUMIDITY.  PRES - PRESSURE.
      HX  - HEAT INDEX.         WCI  - WIND CHILL INDEX.

*  THESE STATIONS ARE NOT NWS OR FAA STATIONS AND ARE NOT UNDER
   NWS QUALITY CONTROL.

LAZ040-048-061>063-065-066-069-190900-
SOUTHEAST LOUISIANA

CITY           SKY/WX    TMP DP  RH WIND       PRES   REMARKS
N.O. AUDUBON     N/A     58  57  96 MISG        N/A
N.O. INTL ARPT CLOUDY    58  52  80 E9        30.08F
N.O. LAKEFRONT CLOUDY    59  53  80 E13       30.09F
N.O. DOWNTOWN* PTSUNNY   57  50  77 NE5       30.09F
SLIDELL        CLOUDY    55  50  83 E7        30.10F
BATON ROUGE    CLOUDY    54  53  97 NE7       30.08F FOG
BOOTHVILLE     CLOUDY    59  57  93 NE6       30.10S
BELLE CHASSE   CLOUDY    59  55  87 E9        30.08F
BOGALUSA*      DRIZZLE   54  51  89 CALM      30.13F
GALLIANO*      CLOUDY    57  56  97 MISG      30.06F FOG
NEW ROADS*     CLOUDY    53  52  97 NE5       30.08F FOG
GONZALES*      CLOUDY    58  56  95 E5        30.06F
HAMMOND*       NOT AVBL
HOUMA*         CLOUDY    58  57  99 E7        30.06F FOG
PORT FOURCHON* CLOUDY    63  61  94 E8        30.09F

$$

LAZ041-044-053-054-190900-
SOUTHWEST LOUISIANA

CITY           SKY/WX    TMP DP  RH WIND       PRES   REMARKS
LAKE CHARLES   LGT RAIN  56  54  93 N9        30.04S
LAFAYETTE      LGT RAIN  57  55  93 VRB3      30.05F FOG
PATTERSON      CLOUDY    57  55  94 E7        30.06F
SALT POINT       N/A     63  59  87 E6        30.02F
NEW IBERIA     CLOUDY    60  56  86 E12       30.03F
CHENAULT AIRPK LGT RAIN  55  54  96 N5        30.06R

$$

LAZ027-028-190900-
CENTRAL LOUISIANA

CITY           SKY/WX    TMP DP  RH WIND       PRES   REMARKS
FORT POLK      CLOUDY    50  50 100 NE7       30.08S THUNDER FOG
ALEXANDRIA INT CLOUDY    51  50  96 N8        30.08F FOG
ALEXANDRIA     CLOUDY    51  49  92 NE5       30.10F

$$

LAZ001-002-190900-
NORTHWEST LOUISIANA

CITY           SKY/WX    TMP DP  RH WIND       PRES   REMARKS
SHREVEPORT     CLOUDY    50  47  89 NE10      30.11F
BARKSDALE AFB  NOT AVBL
DTN SHREVEPORT CLOUDY    49  46  90 NE5       30.13F

$$

LAZ014-016-190900-
NORTHEAST LOUISIANA

CITY           SKY/WX    TMP DP  RH WIND       PRES   REMARKS
MONROE         CLOUDY    49  47  93 NE8       30.16F
TALLULAH       CLOUDY    49  44  83 E7        30.13F

$$




USA.gov is the U.S. government's official web portal to all federal, state and local government web resources and services.